SKYSAT-B

Last updated on Mon Sep 21 2026 00:02:45 GMT+0000 (Coordinated Universal Time)

1 40072U 14037D 26263.47015972 .00000834 00000+0 97054-4 0 9995 2 40072 98.3957 227.9346 0005095 343.1994 16.9051 14.88226868660132
UTC large
Height (km)
Speed (km/s)
/
Latitude / Longitude
Inclination (degrees)
Orbital Period (minutes)
Azimuth
Elevation
Range (km)
Doppler Factor

Next 0 passes for location: London (51.5072 / 0.1276)

No passes found over London.
SKYSAT-B